Back to catalog

YAMAL 102

AliveCommunicationsGEO
NORAD 25897·PAYLOAD·🇷🇺 Russia

Launched Sep 6, 1999 from Baikonur Cosmodrome

Loading…

TLE

FreshSource: Space-Track

Epoch: Sep 14, 2026, 11:22 UTC

1 25897U 99047B   26257.47378241 -.00000089  00000-0  00000-0 0  9996
2 25897  13.7620  12.0178 0001072   2.2967 321.7745  1.00001027 98880

Track YAMAL 102 in real time with AllMySat

Download on the App Store